Regional Weather Roundup
Issued by NWS

Home | Current Version | Previous Version | Graphics & Text | Print | Product List | Glossary On
Versions: 1 2 3 4 5 6 7 8 9 10 11 12 13 14 15 16 17 18 19 20 21 22 23 24 25 26 27 28 29 30 31 32 33 34 35 36 37 38 39 40 41 42 43 44 45 46 47 48 49 50
000
ASUS43 KLMK 111010
RWRKY
KENTUCKY REGIONAL WEATHER ROUNDUP
NATIONAL WEATHER SERVICE LOUISVILLE KY
500 AM EST THU FEB 11 2016

NOTE "FAIR" INDICATES FEW OR NO CLOUDS BELOW 12,000 FEET
WITH NO SIGNIFICANT WEATHER AND/OR OBSTRUCTIONS TO VISIBILITY.

KYZ001>023-026-027-061>063-070>075-111100-
WESTERN AND SOUTH CENTRAL KENTUCKY

CITY           SKY/WX    TMP DP  RH WIND       PRES   REMARKS
PADUCAH        CLOUDY    26  21  81 NE6       30.16R WCI  19
HENDERSON      CLOUDY    25  18  74 CALM      30.20R
OWENSBORO      CLOUDY    23  20  89 E5        30.20R WCI  17
HOPKINSVILLE   CLOUDY    25  21  87 E7        30.15S WCI  17
BOWLING GREEN  CLOUDY    25  19  78 NE7       30.18S WCI  17
GLASGOW        CLOUDY    23  18  82 CALM      30.17R
$$

KYZ024-025-028>034-038-045-046-053-111100-
NORTH CENTRAL KENTUCKY

CITY           SKY/WX    TMP DP  RH WIND       PRES   REMARKS
LOUISVILLE/SDF CLOUDY    21  12  68 NW7       30.20R WCI  12
LOUISVILLE/LOU CLOUDY    21  12  68 NW5       30.20R WCI  15
FORT KNOX      CLOUDY    20  14  77 N5        30.16R WCI  14
$$

KYZ035>037-039>044-047>052-055>060-089>105-111100-
NORTHEAST KENTUCKY

CITY           SKY/WX    TMP DP  RH WIND       PRES   REMARKS
LEXINGTON      CLOUDY    16  10  77 CALM      30.16R
COVINGTON      CLOUDY    13   6  74 SW3       30.15R
FRANKFORT      CLOUDY    18  10  71 CALM      30.16R
$$

KYZ054-064>069-076>088-106>120-111100-
SOUTHEAST KENTUCKY

CITY           SKY/WX    TMP DP  RH WIND       PRES   REMARKS
JACKSON        CLOUDY    16   9  74 CALM      30.13R
LONDON         CLOUDY    20  12  71 CALM      30.15R
SOMERSET       CLOUDY    21  14  73 CALM      30.18S
MIDDLESBORO    CLOUDY    23  15  70 CALM      30.15R
MONTICELLO     CLOUDY    22  17  81 W7        30.18S WCI  13
$$




USA.gov is the U.S. government's official web portal to all federal, state and local government web resources and services.